Theta_e
304 304 304 303 303 303 302 302 301 300 300 299 297 297 296 296 295 295 295 295 296 297 297 298 298 298 297 297 297 296 296 296 296 296 296 296 297 296 297 298 299 300 300
303 303 302 302 302 302 301 301 300 299 298 297 296 295 295 295 295 295 295 296 296 297 297 297 297 297 297 297 297 296 296 297 296 296 296 296 297 297 297 297 297 298 299
303 302 302 301 301 301 300 300 298 297 296 296 295 295 295 295 295 296 297 297 296 296 296 296 297 296 297 297 297 297 297 297 297 297 297 297 297 297 298 298 297 296 297
302 301 301 301 300 300 299 297 296 296 295 294 294 294 295 295 296 296 296 296 296 296 296 297 296 297 297 297 298 297 298 298 298 298 297 297 297 298 297 297 297 297 296
301 301 300 300 300 298 296 296 295 295 294 294 294 294 295 295 295 295 295 295 296 296 297 297 297 298 298 299 301 301 299 299 298 298 298 297 298 298 298 299 298 298 297
300 300 300 298 297 296 296 295 294 294 294 294 294 295 295 295 294 296 296 297 297 297 298 298 297 298 298 298 299 300 301 302 301 298 299 298 299 299 299 299 299 298 297
300 299 297 297 296 296 295 294 294 293 293 293 294 294 294 294 295 296 296 297 297 297 297 298 297 297 298 298 297 298 299 299 300 301 301 300 299 300 299 299 299 298 297
299 297 297 297 296 295 294 294 293 293 293 294 293 293 293 293 294 295 296 297 296 296 297 297 297 297 297 297 296 297 299 300 301 300 301 301 301 300 299 299 299 299 298
297 297 297 296 295 294 294 293 293 293 294 294 293 293 293 293 294 295 296 296 296 297 296 296 296 296 296 296 297 298 300 300 301 301 302 301 301 299 300 299 299 299 298
297 297 296 295 294 294 294 293 293 293 293 292 293 293 293 293 293 294 295 296 296 297 295 294 295 295 296 296 297 299 299 300 300 300 301 301 301 303 301 300 299 299 299
297 297 295 295 294 294 293 293 293 293 292 293 293 293 293 294 294 295 295 295 296 296 295 294 294 294 295 297 298 299 298 299 299 299 300 300 299 298 299 299 300 298 298
297 296 295 295 294 293 293 293 293 292 293 293 293 293 294 294 294 295 294 294 295 294 293 293 293 294 295 296 299 298 298 298 299 299 298 298 297 297 298 298 298 299 298
296 295 295 294 294 293 292 292 291 292 292 292 292 293 294 294 293 294 293 294 293 293 292 292 293 292 295 297 298 298 298 298 299 298 298 298 299 298 298 298 298 298 298
296 295 294 294 293 293 292 291 292 292 292 292 293 293 293 293 293 292 294 294 292 292 292 293 291 293 296 298 298 298 297 297 297 297 298 298 299 299 299 299 298 298 299
296 295 294 294 293 292 291 292 292 292 292 293 293 293 293 293 293 294 294 294 292 292 292 291 291 292 294 296 296 297 298 297 297 298 299 300 300 300 299 299 299 298 298
295 294 294 293 292 291 291 291 291 291 291 292 293 293 293 293 293 294 293 294 292 291 291 290 290 291 291 293 294 295 296 296 298 298 299 300 300 299 299 299 299 299 298
294 294 293 293 292 290 291 291 291 291 291 291 292 292 292 292 292 292 292 291 290 290 290 290 289 290 291 292 292 293 294 296 298 299 299 300 300 300 300 301 300 300 300
294 294 293 292 290 290 291 291 290 290 290 290 291 291 291 291 292 291 290 290 289 289 289 289 289 288 290 291 292 292 294 295 297 299 299 300 300 299 300 300 300 300 300
294 293 292 290 289 290 291 291 290 290 290 290 290 290 290 290 291 290 289 289 289 289 289 289 288 288 288 290 291 293 293 296 298 299 299 300 301 300 300 301 301 301 303
293 292 291 291 290 290 290 290 290 290 289 289 289 290 289 291 290 289 289 289 289 289 288 288 288 288 288 289 290 293 294 297 298 299 299 301 302 301 301 301 302 301 303
292 291 291 290 290 290 290 290 289 289 289 289 289 289 289 290 289 289 289 289 289 288 288 288 288 287 287 288 289 292 294 296 297 299 301 301 301 301 300 301 301 303 304
290 290 290 289 290 290 290 289 289 289 289 288 289 289 289 289 289 289 289 289 289 289 289 288 288 288 288 288 290 291 294 295 297 299 300 300 299 300 300 300 301 302 302
288 290 289 289 290 290 289 289 289 289 288 288 288 289 288 289 289 289 288 288 289 289 289 289 288 288 288 289 291 292 294 295 297 297 299 299 299 300 299 299 300 301 302
288 289 289 289 289 289 288 288 288 288 288 288 288 288 288 288 288 288 288 289 289 289 289 289 289 290 290 291 292 292 294 295 296 297 298 298 298 299 299 300 300 300 301
288 289 289 289 289 289 289 288 288 288 288 288 288 288 288 288 288 288 288 289 289 289 290 291 291 292 292 293 293 293 294 295 295 296 297 298 298 298 299 301 301 300 300
288 288 288 288 288 288 288 288 288 287 287 288 288 288 288 288 288 288 288 289 289 290 292 293 294 295 295 296 295 294 294 294 295 295 297 297 298 298 299 300 301 300 301
Wind_Speed
10 13 14 13 14 17 20 20 20 22 25 28 29 31 31 32 32 32 31 30 30 30 30 29 31 29 33 35 35 36 37 35 39 45 35 29 27 27 26 38 34 28 22
14 17 15 13 16 17 18 20 24 27 27 29 30 31 32 31 30 30 31 32 31 30 29 31 33 31 32 35 35 35 34 34 36 43 36 35 34 31 29 28 30 38 30
18 19 18 16 17 19 21 26 26 28 29 30 30 30 31 32 33 30 28 29 28 30 33 34 34 34 37 36 35 36 35 38 39 40 39 37 37 35 35 34 32 27 40
17 15 16 17 18 22 27 26 28 30 30 30 31 31 31 31 28 31 34 35 35 33 33 34 36 36 39 39 40 41 42 40 41 40 38 38 34 36 37 38 35 31 27
13 15 16 19 24 26 27 29 30 30 29 30 31 30 30 30 35 37 30 30 31 35 36 37 35 35 36 39 41 42 46 45 46 43 41 40 38 38 37 33 34 31 26
13 16 20 22 22 25 29 30 30 30 31 31 29 29 30 33 35 28 29 32 34 35 35 35 34 34 33 33 33 34 35 38 40 43 46 42 45 42 41 40 35 30 28
16 17 20 21 24 27 29 29 29 31 30 30 27 32 36 29 30 29 30 32 33 33 33 30 30 32 32 32 37 36 37 38 40 40 39 43 43 43 41 37 36 33 30
17 19 20 23 28 28 28 29 30 30 30 28 34 30 31 31 28 28 28 30 29 30 30 28 29 33 32 34 37 38 36 38 37 40 41 39 33 28 30 34 34 33 30
18 19 23 28 28 28 28 29 31 31 26 33 32 31 31 30 28 28 27 28 31 29 24 29 31 29 33 32 35 30 32 34 35 38 39 28 30 32 30 26 35 32 30
19 23 27 27 26 26 28 30 29 25 31 30 31 29 29 27 27 24 26 27 29 24 29 34 33 28 27 32 29 26 29 28 25 16 21 23 21 23 26 29 28 36 30
23 26 25 25 24 26 28 27 26 32 33 28 30 28 27 27 26 26 24 26 26 30 33 36 34 31 29 31 30 21 23 18 15 10 11 17 18 18 22 25 32 29 29
24 24 25 23 25 26 24 27 34 29 27 29 30 28 28 27 26 23 23 24 24 28 31 31 32 31 31 27 21 17 14 13 11 10 9 8 10 14 18 18 21 28 28
24 24 23 25 25 22 26 33 29 24 28 30 28 29 30 26 28 25 24 23 24 28 28 27 27 32 21 15 10 9 8 8 8 11 15 17 16 16 15 19 20 21 24
25 23 24 23 22 25 31 26 25 26 30 28 30 29 28 26 27 26 29 25 30 30 29 27 29 23 14 8 7 2 10 13 14 15 17 19 17 17 21 22 24 21 23
23 24 22 22 24 30 28 24 25 26 27 28 27 26 27 27 27 25 27 25 29 29 25 26 22 19 15 10 9 8 11 15 16 10 9 10 10 14 18 19 24 28 28
23 22 21 24 25 30 26 28 26 26 26 24 22 23 25 27 28 29 29 25 27 24 20 21 20 18 14 14 13 11 13 18 14 7 8 9 11 14 19 22 24 26 27
21 20 23 22 28 28 25 27 31 31 26 26 23 22 23 26 26 24 25 27 26 18 17 17 19 17 16 13 12 12 15 14 10 8 4 7 6 10 2 8 11 18 20
18 20 18 24 26 23 22 25 28 30 31 30 25 24 24 24 24 28 25 26 21 18 16 17 19 18 15 13 11 11 11 12 10 6 3 7 8 5 6 7 7 14 21
18 18 24 20 24 20 20 23 27 29 29 27 27 27 28 27 28 26 25 23 22 21 20 19 19 18 16 12 11 10 12 8 10 4 5 4 8 8 11 13 16 16 7
17 21 18 21 25 20 22 25 28 30 28 26 29 28 29 30 31 28 27 26 25 24 21 19 19 18 16 13 11 10 9 2 5 9 1 5 6 6 9 12 14 16 23
18 19 18 25 19 20 23 25 26 27 27 27 28 28 25 27 29 29 29 29 28 25 22 19 17 17 16 13 11 9 9 5 3 9 5 7 7 7 7 6 11 15 18
16 17 22 20 19 22 24 25 24 25 26 28 28 29 26 27 28 30 31 32 30 26 22 18 16 16 15 13 11 11 12 11 7 4 9 9 7 6 5 8 12 12 15
17 17 21 19 20 23 25 24 24 25 26 27 27 28 27 30 32 34 36 36 33 30 24 17 14 15 14 12 13 13 13 16 16 10 5 7 7 5 6 8 10 13 16
16 17 17 19 20 22 24 25 25 26 25 25 27 27 28 31 36 37 38 38 35 32 25 18 13 12 11 11 14 15 15 17 22 17 11 9 7 6 6 9 9 10 14
16 16 16 19 21 21 23 24 25 27 26 25 26 28 31 32 36 40 41 39 36 32 25 17 11 8 7 8 13 16 17 18 23 24 17 13 10 8 8 9 9 10 13
15 15 16 20 21 21 22 24 25 25 26 26 26 28 31 33 37 40 41 40 38 33 26 18 10 6 5 5 10 16 20 21 21 24 24 18 14 13 12 10 9 12 17
Wind_Direction
271 269 271 277 274 270 278 289 295 291 289 291 291 292 292 291 292 290 290 289 286 285 283 282 279 276 277 281 280 278 275 269 267 279 280 284 285 290 284 254 255 260 270
284 292 295 286 283 286 286 287 287 292 292 293 294 294 293 294 294 292 289 287 286 286 283 283 281 280 279 280 281 279 275 272 269 273 276 279 282 286 288 289 266 255 256
290 289 292 285 289 298 293 294 296 297 298 298 298 297 296 294 295 297 294 290 285 284 287 284 279 282 280 282 277 273 268 267 265 264 267 271 275 278 281 283 281 287 253
284 292 295 304 300 293 297 300 301 303 302 302 301 299 299 301 291 285 286 286 287 286 285 286 284 280 279 280 281 276 272 265 265 260 263 263 266 267 270 274 278 277 277
292 302 306 296 295 303 305 306 308 307 305 304 303 303 303 292 290 299 300 295 291 289 287 288 287 286 280 278 276 276 262 262 258 256 253 253 255 260 259 271 275 277 276
297 295 294 300 308 304 304 304 306 306 304 307 305 303 290 292 301 298 299 295 292 293 294 294 289 292 291 290 288 285 280 274 274 256 253 248 254 257 263 264 266 264 261
302 305 307 310 303 302 304 308 308 307 310 307 300 293 300 304 304 301 300 294 292 293 296 296 297 294 293 293 300 290 282 277 272 269 268 255 254 256 252 251 248 248 244
305 307 310 300 303 308 311 311 313 312 312 302 305 310 314 311 308 305 300 299 300 296 294 292 297 295 299 294 299 292 288 287 285 274 263 258 262 268 257 247 242 245 251
310 306 297 307 311 311 314 315 314 315 309 307 311 315 318 315 312 307 305 303 304 296 305 307 305 304 299 303 296 291 299 299 294 274 260 253 254 250 250 242 235 229 229
305 299 308 310 313 316 315 313 317 310 311 312 316 318 318 313 315 313 311 315 311 312 314 314 310 303 297 303 299 296 295 307 314 301 238 234 238 241 240 235 241 227 231
300 304 313 318 318 312 312 318 306 304 314 316 318 318 319 326 325 319 318 313 317 322 316 311 310 310 305 304 304 288 289 300 314 299 260 243 238 240 237 237 234 233 228
301 310 318 318 311 315 317 307 305 318 321 322 320 320 325 329 323 319 322 320 321 316 313 312 312 311 303 297 306 291 294 295 292 292 279 260 247 239 244 243 240 231 237
304 313 316 312 319 318 308 307 322 327 325 322 321 326 328 325 329 327 325 315 319 321 317 316 312 313 304 301 300 298 286 291 283 271 274 273 263 261 253 249 248 246 247
306 314 314 319 318 307 311 328 331 326 324 323 324 322 323 325 329 335 324 330 330 326 327 319 320 320 347 339 307 328 304 296 314 287 261 260 256 248 246 245 243 233 239
309 314 317 317 316 311 324 335 328 322 325 319 317 319 321 320 325 321 322 327 331 324 318 314 329 340 333 336 358 347 329 314 322 299 264 273 246 243 247 248 239 239 238
311 318 319 314 313 320 333 330 331 330 330 327 322 320 320 321 324 322 323 319 325 327 317 326 333 341 337 323 317 318 318 325 337 284 259 263 255 252 251 248 245 239 235
315 317 318 318 316 326 332 332 334 333 333 334 333 331 327 325 325 325 332 327 329 328 328 330 329 330 333 324 318 293 297 327 335 288 264 277 296 313 282 207 223 227 228
319 319 313 311 321 332 335 336 339 337 334 334 338 339 336 333 335 335 334 331 338 341 336 327 325 325 319 316 312 314 299 314 349 329 319 299 299 271 270 341 318 227 224
322 315 314 324 332 336 335 337 340 341 338 335 338 344 341 342 342 335 341 343 339 336 329 320 315 314 312 302 296 291 299 316 17 325 270 115 61 41 18 47 68 93 120
325 323 341 320 332 341 339 337 339 341 343 341 345 342 348 341 340 345 344 344 340 333 327 319 312 305 301 295 286 264 282 318 46 54 71 20 30 38 42 72 70 70 85
328 336 327 322 345 345 342 340 340 339 348 348 349 344 337 338 345 346 346 344 341 339 335 327 312 301 291 282 271 254 238 228 241 67 132 71 55 56 75 76 85 83 91
333 328 325 338 351 346 341 338 344 345 350 351 349 347 348 349 347 347 348 349 348 346 340 328 312 294 282 272 254 242 221 207 190 106 107 100 71 44 68 77 109 99 100
342 336 335 348 349 343 343 345 347 349 351 351 348 350 352 354 355 355 354 354 352 350 346 334 312 292 278 258 241 233 218 196 191 192 146 141 112 87 83 91 116 108 106
344 337 342 349 350 342 347 348 353 354 348 350 351 349 351 354 358 358 356 357 355 354 352 344 322 294 275 246 229 218 214 197 184 183 178 174 136 123 114 105 123 124 124
349 352 346 349 347 345 346 349 353 354 352 353 352 353 355 355 356 359 359 359 359 359 359 356 340 310 281 238 220 211 203 199 188 179 176 171 161 147 145 132 132 135 131
355 347 348 354 354 352 353 354 355 353 353 351 352 349 353 355 357 360 359 1 2 3 7 7 356 324 302 249 213 205 199 198 191 184 180 175 167 161 158 148 135 139 145